STARLINK-6080 (56112 NORAD) Tracking and Keplerian Element Data

This shows tracking and keplerian element data for the satellite.

Feedback or suggestion? Click here.




ElementValue
Catalog56112
NameSTARLINK-6080
Epoch Orbit652
Epoch Day127.25001157
Epoch Year2023
RAAN37.656
Inclination43.0009
Eccentricity0.0001421
Argument of Perigee271.8319
Mean Anonmoly169.3052
Mean Motion15.30767884
Decay Rate-0.00898564
L11 56112U 23046V 23127.25001157 -.00898564 00000+0 -32257-1 0 9997
L22 56112 43.0009 37.6560 0001421 271.8319 169.3052 15.30767884 6527



Live tracking and technical data element details for STARLINK-6080 (NORAD 56112). STARLINK-6080 can be tracked NOW for your location showing map with azimuth and elevation plus other details from your city location.







IsCatalogInMostPopularTable: catalog: 56112, numindb: 1
Update: records affected: 1



GetName: 56112 STARLINK-6080

Hit Count: updated at: Sat, 03 Jun 2023 17:56:24 GMT